| time (UTC) | temp F | wind direction | speed MPH | gust MPH | rain 1hr in | rain 24hr in | rain mn in | humidity % | barometer mb |
| 20260505223441 | 64 | 359 | 0.0 | 0.0 | 0.00 | 1.60 | 0.00 | 85 | 1013.5 |
| 20260505222941 | 64 | 193 | 0.0 | 0.0 | 0.00 | 1.60 | 0.00 | 85 | 1013.5 |
| 20260505222438 | 64 | 191 | 0.0 | 0.0 | 0.00 | 1.60 | 0.00 | 85 | 1013.6 |
| 20260505221944 | 64 | 233 | 0.0 | 0.0 | 0.00 | 1.60 | 0.00 | 85 | 1013.7 |
| 20260505221438 | 64 | 359 | 0.0 | 0.0 | 0.00 | 1.60 | 0.00 | 85 | 1013.5 |
| 20260505220941 | 64 | 359 | 0.0 | 0.0 | 0.00 | 1.60 | 0.00 | 85 | 1013.4 |
| 20260505220438 | 64 | 359 | 0.0 | 0.0 | 0.00 | 1.60 | 0.00 | 85 | 1013.4 |
| 20260505215941 | 64 | 236 | 0.0 | 0.0 | 0.00 | 1.60 | 0.00 | 85 | 1013.5 |
| 20260505215447 | 64 | 359 | 0.0 | 0.0 | 0.00 | 1.60 | 0.00 | 85 | 1013.6 |
| 20260505214941 | 64 | 359 | 0.0 | 0.0 | 0.00 | 1.60 | 0.00 | 85 | 1013.5 |
| 20260505214441 | 64 | 235 | 0.0 | 0.0 | 0.00 | 1.60 | 0.00 | 85 | 1013.7 |
| 20260505213941 | 64 | 359 | 0.0 | 0.0 | 0.00 | 1.60 | 0.00 | 85 | 1013.7 |
| 20260505213441 | 64 | 359 | 0.0 | 0.0 | 0.00 | 1.60 | 0.00 | 85 | 1013.8 |
| 20260505212938 | 64 | 236 | 0.0 | 0.0 | 0.00 | 1.60 | 0.00 | 85 | 1013.9 |
| 20260505212438 | 64 | 200 | 0.0 | 0.0 | 0.00 | 1.60 | 0.00 | 85 | 1013.7 |
| 20260505211941 | 64 | 359 | 0.0 | 0.0 | 0.00 | 1.60 | 0.00 | 85 | 1013.8 |
| 20260505211438 | 64 | 359 | 0.0 | 0.0 | 0.00 | 1.60 | 0.00 | 85 | 1013.8 |
| 20260505210941 | 64 | 211 | 0.0 | 0.0 | 0.00 | 1.60 | 0.00 | 85 | 1013.8 |
| 20260505210441 | 64 | 359 | 0.0 | 0.0 | 0.00 | 1.60 | 0.00 | 85 | 1014.0 |
| 20260505205938 | 64 | 201 | 0.0 | 0.0 | 0.00 | 1.60 | 0.00 | 85 | 1014.0 |
| 20260505205438 | 64 | 359 | 0.0 | 0.0 | 0.00 | 1.60 | 0.00 | 85 | 1014.0 |
| 20260505204941 | 64 | 220 | 0.0 | 0.0 | 0.00 | 1.60 | 0.00 | 85 | 1014.0 |
| 20260505204438 | 64 | 197 | 0.0 | 0.0 | 0.00 | 1.60 | 0.00 | 85 | 1014.1 |
| 20260505203938 | 64 | 359 | 0.0 | 0.0 | 0.00 | 1.60 | 0.00 | 85 | 1014.2 |
| 20260505203444 | 64 | 195 | 0.0 | 0.0 | 0.00 | 1.60 | 0.00 | 85 | 1014.2 |
| 20260505202941 | 64 | 359 | 0.0 | 0.0 | 0.00 | 1.60 | 0.00 | 85 | 1014.2 |
| 20260505202441 | 64 | 205 | 0.0 | 0.0 | 0.00 | 1.60 | 0.00 | 84 | 1014.1 |
| 20260505201938 | 64 | 359 | 0.0 | 0.0 | 0.00 | 1.60 | 0.00 | 84 | 1014.2 |
| 20260505201441 | 64 | 359 | 0.0 | 0.0 | 0.00 | 1.60 | 0.00 | 84 | 1014.1 |
| 20260505200938 | 64 | 359 | 0.0 | 0.0 | 0.00 | 1.60 | 0.00 | 84 | 1014.1 |
| 20260505200438 | 64 | 359 | 0.0 | 0.0 | 0.00 | 1.60 | 0.00 | 84 | 1014.1 |
| 20260505195938 | 64 | 359 | 0.0 | 0.0 | 0.00 | 1.60 | 0.00 | 84 | 1014.2 |
| 20260505195438 | 64 | 359 | 0.0 | 0.0 | 0.00 | 1.60 | 0.00 | 84 | 1014.2 |
| 20260505194941 | 64 | 359 | 0.0 | 0.0 | 0.00 | 1.60 | 0.00 | 84 | 1014.2 |
| 20260505194444 | 64 | 359 | 0.0 | 0.0 | 0.00 | 1.60 | 0.00 | 84 | 1014.2 |
| 20260505193938 | 64 | 359 | 0.0 | 0.0 | 0.00 | 1.60 | 0.00 | 84 | 1014.1 |
| 20260505193444 | 64 | 359 | 0.0 | 0.0 | 0.00 | 1.60 | 0.00 | 84 | 1014.1 |
| 20260505192941 | 64 | 222 | 0.0 | 0.0 | 0.00 | 1.60 | 0.00 | 84 | 1014.1 |
| 20260505192444 | 64 | 359 | 0.0 | 0.0 | 0.00 | 1.60 | 0.00 | 84 | 1014.1 |
| 20260505191938 | 64 | 359 | 0.0 | 0.0 | 0.00 | 1.60 | 0.00 | 84 | 1014.0 |
| 20260505191438 | 64 | 359 | 0.0 | 0.0 | 0.00 | 1.60 | 0.00 | 84 | 1014.0 |
| 20260505190942 | 64 | 219 | 0.0 | 0.0 | 0.00 | 1.60 | 0.00 | 84 | 1013.9 |
| 20260505190439 | 64 | 359 | 0.0 | 0.0 | 0.00 | 1.60 | 0.00 | 84 | 1013.9 |
| 20260505185942 | 64 | 200 | 0.0 | 0.0 | 0.00 | 1.60 | 0.00 | 84 | 1013.7 |
| 20260505185445 | 64 | 359 | 0.0 | 0.0 | 0.00 | 1.60 | 0.00 | 84 | 1013.8 |
| 20260505184938 | 64 | 359 | 0.0 | 0.0 | 0.00 | 1.60 | 0.00 | 84 | 1013.8 |
| 20260505184439 | 64 | 359 | 0.0 | 0.0 | 0.00 | 1.60 | 0.00 | 84 | 1013.8 |
| 20260505183939 | 64 | 359 | 0.0 | 0.0 | 0.00 | 1.60 | 0.00 | 84 | 1013.9 |
| 20260505183445 | 64 | 359 | 0.0 | 0.0 | 0.00 | 1.60 | 0.00 | 84 | 1014.0 |
| 20260505182939 | 64 | 359 | 0.0 | 0.0 | 0.00 | 1.60 | 0.00 | 84 | 1014.0 |
| 20260505182445 | 64 | 359 | 0.0 | 0.0 | 0.00 | 1.60 | 0.00 | 83 | 1014.0 |
| 20260505181942 | 64 | 359 | 0.0 | 0.0 | 0.00 | 1.60 | 0.00 | 83 | 1014.0 |
| 20260505181439 | 65 | 359 | 0.0 | 0.0 | 0.00 | 1.60 | 0.00 | 83 | 1014.0 |
| 20260505180939 | 65 | 359 | 0.0 | 0.0 | 0.00 | 1.60 | 0.00 | 82 | 1014.0 |
| 20260505180442 | 65 | 359 | 0.0 | 0.0 | 0.00 | 1.60 | 0.00 | 82 | 1013.9 |
| 20260505175939 | 65 | 359 | 0.0 | 0.0 | 0.00 | 1.60 | 0.00 | 82 | 1013.9 |
| 20260505175439 | 65 | 359 | 0.0 | 0.0 | 0.00 | 1.60 | 0.00 | 82 | 1014.0 |
| 20260505174939 | 65 | 359 | 0.0 | 0.0 | 0.00 | 1.60 | 0.00 | 82 | 1013.9 |
| 20260505174439 | 65 | 359 | 0.0 | 0.0 | 0.00 | 1.60 | 0.00 | 81 | 1013.9 |
| 20260505173942 | 65 | 359 | 0.0 | 0.0 | 0.00 | 1.60 | 0.00 | 81 | 1013.9 |
| 20260505173439 | 65 | 189 | 0.0 | 0.0 | 0.00 | 1.60 | 0.00 | 81 | 1013.8 |
| 20260505172939 | 65 | 186 | 0.0 | 0.0 | 0.00 | 1.60 | 0.00 | 82 | 1013.7 |
| 20260505172442 | 65 | 359 | 0.0 | 0.0 | 0.00 | 1.60 | 0.00 | 82 | 1013.7 |
| 20260505171942 | 65 | 183 | 0.0 | 0.0 | 0.00 | 1.60 | 0.00 | 82 | 1013.8 |
| 20260505171442 | 65 | 153 | 0.0 | 0.0 | 0.00 | 1.60 | 0.00 | 81 | 1013.8 |
| 20260505170939 | 65 | 359 | 0.0 | 0.0 | 0.00 | 1.60 | 0.00 | 81 | 1013.8 |
| 20260505170439 | 65 | 359 | 0.0 | 0.0 | 0.00 | 1.60 | 0.00 | 80 | 1013.9 |
| 20260505165942 | 66 | 359 | 0.0 | 0.0 | 0.00 | 1.60 | 0.00 | 81 | 1013.9 |
| 20260505165439 | 66 | 212 | 0.0 | 0.0 | 0.00 | 1.60 | 0.00 | 80 | 1013.9 |
| 20260505164939 | 66 | 210 | 0.0 | 0.0 | 0.00 | 1.60 | 0.00 | 79 | 1013.9 |
| 20260505164439 | 66 | 251 | 0.0 | 0.0 | 0.00 | 1.60 | 0.00 | 79 | 1013.9 |
| 20260505163939 | 66 | 201 | 0.0 | 0.0 | 0.00 | 1.60 | 0.00 | 78 | 1013.9 |
| 20260505163439 | 66 | 199 | 0.0 | 0.0 | 0.00 | 1.60 | 0.00 | 78 | 1013.9 |
| 20260505162939 | 66 | 219 | 0.0 | 0.0 | 0.00 | 1.60 | 0.00 | 79 | 1013.9 |
| 20260505162439 | 66 | 359 | 0.0 | 0.0 | 0.00 | 1.60 | 0.00 | 79 | 1013.8 |
| 20260505161942 | 66 | 359 | 0.0 | 0.0 | 0.00 | 1.60 | 0.00 | 78 | 1013.8 |
| 20260505161439 | 66 | 177 | 0.0 | 0.0 | 0.00 | 1.60 | 0.00 | 77 | 1013.8 |
| 20260505160939 | 66 | 359 | 0.0 | 0.0 | 0.00 | 1.60 | 0.00 | 77 | 1013.8 |
| 20260505160445 | 66 | 219 | 0.0 | 0.0 | 0.00 | 1.60 | 0.00 | 77 | 1013.8 |
| 20260505152942 | 66 | 359 | 0.0 | 0.0 | 0.00 | 1.60 | 0.00 | 79 | 1014.0 |
| 20260505152439 | 65 | 359 | 0.0 | 0.0 | 0.00 | 1.60 | 0.00 | 79 | 1014.2 |
| 20260505151939 | 66 | 206 | 0.0 | 0.0 | 0.00 | 1.60 | 0.00 | 79 | 1014.2 |
| 20260505151439 | 66 | 187 | 0.0 | 0.0 | 0.00 | 1.60 | 0.00 | 78 | 1014.2 |
| 20260505150942 | 66 | 185 | 0.0 | 0.0 | 0.00 | 1.60 | 0.00 | 78 | 1014.1 |
| 20260505150442 | 66 | 359 | 0.0 | 0.0 | 0.00 | 1.60 | 0.00 | 78 | 1014.1 |
| 20260505140439 | 67 | 255 | 0.0 | 0.0 | 0.00 | 1.59 | 0.00 | 76 | 1014.0 |
| 20260505124942 | 67 | 154 | 0.0 | 0.0 | 0.00 | 1.59 | 0.00 | 74 | 1014.1 |
| 20260505124442 | 67 | 233 | 0.0 | 0.0 | 0.00 | 1.59 | 0.00 | 75 | 1014.1 |
| 20260505123939 | 67 | 204 | 0.0 | 0.0 | 0.00 | 1.59 | 0.00 | 75 | 1014.1 |
| 20260505123439 | 67 | 350 | 0.0 | 0.0 | 0.00 | 1.59 | 0.00 | 75 | 1014.1 |
| 20260505122939 | 66 | 359 | 0.0 | 0.0 | 0.00 | 1.59 | 0.00 | 75 | 1014.2 |
| 20260505122439 | 66 | 359 | 0.0 | 0.0 | 0.00 | 1.59 | 0.00 | 75 | 1014.2 |
| 20260505121939 | 66 | 359 | 0.0 | 0.0 | 0.00 | 1.59 | 0.00 | 73 | 1014.2 |
| 20260505121439 | 66 | 21 | 0.0 | 0.0 | 0.00 | 1.59 | 0.00 | 73 | 1014.1 |
| 20260505120945 | 66 | 39 | 0.0 | 0.0 | 0.00 | 1.59 | 0.00 | 74 | 1014.1 |
| 20260505120439 | 66 | 36 | 0.0 | 0.0 | 0.00 | 1.59 | 0.00 | 75 | 1014.1 |
| 20260505115939 | 65 | 17 | 0.0 | 0.0 | 0.00 | 1.59 | 0.00 | 75 | 1014.2 |
| 20260505115442 | 65 | 18 | 0.0 | 0.0 | 0.00 | 1.59 | 0.00 | 75 | 1014.2 |
| 20260505114942 | 65 | 36 | 0.0 | 0.0 | 0.00 | 1.59 | 0.00 | 75 | 1014.1 |
| 20260505114439 | 64 | 60 | 0.0 | 0.0 | 0.00 | 1.59 | 0.00 | 76 | 1014.1 |
| 20260505113939 | 64 | 41 | 0.0 | 0.0 | 0.00 | 1.59 | 0.00 | 76 | 1014.1 |
| 20260505113439 | 64 | 359 | 0.0 | 0.0 | 0.00 | 1.59 | 0.00 | 76 | 1014.2 |
| 20260505112942 | 64 | 23 | 0.0 | 0.0 | 0.00 | 1.59 | 0.00 | 75 | 1014.2 |
| 20260505112442 | 64 | 26 | 0.0 | 0.0 | 0.00 | 1.59 | 0.00 | 77 | 1014.3 |
| 20260505111942 | 63 | 13 | 0.0 | 0.0 | 0.00 | 1.59 | 0.00 | 76 | 1014.3 |
| 20260505111442 | 63 | 33 | 0.0 | 0.0 | 0.00 | 1.59 | 0.00 | 77 | 1014.2 |
| 20260505110939 | 63 | 28 | 0.0 | 0.0 | 0.00 | 1.59 | 0.00 | 78 | 1014.3 |
| 20260505110439 | 63 | 12 | 0.0 | 0.0 | 0.00 | 1.59 | 0.00 | 79 | 1014.3 |
| 20260505101939 | 60 | 359 | 0.0 | 0.0 | 0.00 | 1.59 | 0.00 | 84 | 1014.3 |
| 20260505101439 | 60 | 359 | 0.0 | 0.0 | 0.00 | 1.59 | 0.00 | 84 | 1014.2 |
| 20260505100939 | 60 | 359 | 0.0 | 0.0 | 0.00 | 1.59 | 0.00 | 85 | 1014.2 |
| 20260505100439 | 60 | 359 | 0.0 | 0.0 | 0.00 | 1.59 | 0.00 | 86 | 1014.2 |
| 20260505095939 | 60 | 359 | 0.0 | 0.0 | 0.00 | 1.59 | 0.00 | 86 | 1014.2 |
| 20260505095439 | 59 | 359 | 0.0 | 0.0 | 0.00 | 1.59 | 0.00 | 85 | 1014.3 |
| 20260505094945 | 59 | 359 | 0.0 | 0.0 | 0.00 | 1.59 | 0.00 | 85 | 1014.3 |
| 20260505094439 | 59 | 359 | 0.0 | 0.0 | 0.00 | 1.59 | 0.00 | 84 | 1014.4 |
| 20260505093939 | 59 | 359 | 0.0 | 0.0 | 0.00 | 1.59 | 0.00 | 83 | 1014.4 |
| 20260505093445 | 59 | 359 | 0.0 | 0.0 | 0.00 | 1.59 | 0.00 | 82 | 1014.3 |
| 20260505092939 | 59 | 359 | 0.0 | 0.0 | 0.00 | 1.59 | 0.00 | 82 | 1014.3 |
| 20260505092439 | 59 | 359 | 0.0 | 0.0 | 0.00 | 1.59 | 0.00 | 83 | 1014.2 |
| 20260505091942 | 60 | 359 | 0.0 | 0.0 | 0.00 | 1.59 | 0.00 | 83 | 1014.0 |
| 20260505091448 | 60 | 359 | 0.0 | 0.0 | 0.00 | 1.59 | 0.00 | 83 | 1014.1 |
| 20260505090945 | 60 | 359 | 0.0 | 0.0 | 0.00 | 1.59 | 0.00 | 82 | 1014.1 |
| 20260505090442 | 60 | 359 | 0.0 | 0.0 | 0.00 | 1.59 | 0.00 | 81 | 1014.1 |
| 20260505085939 | 61 | 359 | 0.0 | 0.0 | 0.00 | 1.59 | 0.00 | 81 | 1014.1 |
| 20260505085445 | 61 | 359 | 0.0 | 0.0 | 0.00 | 1.59 | 0.00 | 80 | 1014.1 |
| 20260505084939 | 61 | 359 | 0.0 | 0.0 | 0.00 | 1.59 | 0.00 | 80 | 1014.1 |
| 20260505084442 | 61 | 359 | 0.0 | 0.0 | 0.00 | 1.59 | 0.00 | 80 | 1014.0 |
| 20260505083942 | 61 | 359 | 0.0 | 0.0 | 0.00 | 1.59 | 0.00 | 81 | 1013.9 |
| 20260505083439 | 61 | 359 | 0.0 | 0.0 | 0.00 | 1.59 | 0.00 | 81 | 1013.8 |
| 20260505082939 | 61 | 359 | 0.0 | 0.0 | 0.00 | 1.59 | 0.00 | 82 | 1013.8 |
| 20260505082439 | 61 | 359 | 0.0 | 0.0 | 0.00 | 1.59 | 0.00 | 81 | 1013.8 |
| 20260505081939 | 61 | 359 | 0.0 | 0.0 | 0.00 | 1.59 | 0.00 | 81 | 1013.8 |
| 20260505081449 | 61 | 359 | 0.0 | 0.0 | 0.00 | 1.59 | 0.00 | 80 | 1013.9 |
| 20260505080940 | 61 | 359 | 0.0 | 0.0 | 0.00 | 1.59 | 0.00 | 80 | 1013.9 |
| 20260505080439 | 61 | 359 | 0.0 | 0.0 | 0.00 | 1.59 | 0.00 | 80 | 1013.8 |
| 20260505075946 | 60 | 359 | 0.0 | 0.0 | 0.00 | 1.59 | 0.00 | 82 | 1013.6 |
| 20260505075440 | 60 | 359 | 0.0 | 0.0 | 0.00 | 1.59 | 0.00 | 82 | 1013.5 |
| 20260505074939 | 60 | 359 | 0.0 | 0.0 | 0.00 | 1.59 | 0.00 | 82 | 1013.6 |
| 20260505074440 | 60 | 359 | 0.0 | 0.0 | 0.00 | 1.59 | 0.00 | 83 | 1013.7 |
| 20260505073946 | 59 | 359 | 0.0 | 0.0 | 0.00 | 1.59 | 0.00 | 84 | 1013.8 |
| 20260505073440 | 59 | 359 | 0.0 | 0.0 | 0.00 | 1.59 | 0.00 | 84 | 1013.9 |
| 20260505072949 | 59 | 359 | 0.0 | 0.0 | 0.00 | 1.59 | 0.00 | 85 | 1013.9 |
| 20260505072446 | 58 | 359 | 0.0 | 0.0 | 0.01 | 1.59 | 0.00 | 86 | 1013.9 |
| 20260505071940 | 58 | 359 | 0.0 | 0.0 | 0.03 | 1.59 | 0.00 | 85 | 1013.9 |
| 20260505071440 | 58 | 359 | 0.0 | 0.0 | 0.03 | 1.59 | 0.00 | 85 | 1013.9 |
| 20260505070943 | 58 | 359 | 0.0 | 0.0 | 0.07 | 1.59 | 0.00 | 85 | 1013.8 |
| 20260505070443 | 58 | 359 | 0.0 | 0.0 | 0.09 | 1.59 | 0.00 | 85 | 1013.8 |
| 20260505065946 | 58 | 359 | 0.0 | 0.0 | 0.11 | 1.59 | 0.00 | 84 | 1013.6 |
| 20260505065440 | 58 | 359 | 0.0 | 0.0 | 0.13 | 1.59 | 0.00 | 84 | 1013.6 |
| 20260505064940 | 58 | 359 | 0.0 | 0.0 | 0.15 | 1.59 | 0.00 | 85 | 1013.5 |
| 20260505064443 | 58 | 359 | 0.0 | 0.0 | 0.18 | 1.59 | 0.00 | 86 | 1013.3 |
| 20260505063940 | 58 | 359 | 0.0 | 0.0 | 0.24 | 1.59 | 0.00 | 86 | 1013.2 |
| 20260505063443 | 58 | 359 | 0.0 | 0.0 | 0.28 | 1.59 | 0.00 | 86 | 1013.1 |
| 20260505062940 | 57 | 359 | 0.0 | 0.0 | 0.33 | 1.58 | 0.00 | 86 | 1013.1 |
| 20260505062449 | 57 | 359 | 0.0 | 0.0 | 0.35 | 1.57 | 0.00 | 87 | 1013.0 |
| 20260505061940 | 57 | 359 | 0.0 | 0.0 | 0.38 | 1.55 | 0.00 | 87 | 1013.1 |
| 20260505061443 | 57 | 359 | 0.0 | 0.0 | 0.41 | 1.55 | 0.00 | 88 | 1013.1 |
| 20260505060940 | 57 | 359 | 0.0 | 0.0 | 0.40 | 1.51 | 0.00 | 88 | 1013.2 |
| 20260505060440 | 57 | 359 | 0.0 | 0.0 | 0.39 | 1.49 | 0.00 | 89 | 1013.2 |
| 20260505055940 | 56 | 359 | 0.0 | 0.0 | 0.38 | 1.47 | 0.00 | 89 | 1012.9 |
| 20260505055443 | 57 | 359 | 0.0 | 0.0 | 0.39 | 1.45 | 0.00 | 89 | 1012.8 |
| 20260505054940 | 57 | 359 | 0.0 | 0.0 | 0.39 | 1.43 | 0.00 | 88 | 1012.5 |
| 20260505054440 | 57 | 359 | 0.0 | 0.0 | 0.38 | 1.40 | 0.00 | 86 | 1012.4 |
| 20260505053940 | 57 | 359 | 0.0 | 0.0 | 0.37 | 1.34 | 0.00 | 87 | 1012.8 |
| 20260505053440 | 58 | 359 | 0.0 | 0.0 | 0.38 | 1.30 | 0.00 | 86 | 1013.7 |
| 20260505052940 | 58 | 359 | 0.0 | 0.0 | 0.37 | 1.25 | 0.00 | 86 | 1013.6 |
| 20260505052443 | 58 | 359 | 0.0 | 0.0 | 0.39 | 1.22 | 0.00 | 86 | 1013.4 |
| 20260505051940 | 58 | 359 | 0.0 | 0.0 | 0.40 | 1.17 | 0.00 | 86 | 1013.3 |
| 20260505051443 | 58 | 359 | 0.0 | 0.0 | 0.42 | 1.13 | 0.00 | 86 | 1013.4 |
| 20260505050946 | 58 | 359 | 0.0 | 0.0 | 0.44 | 1.11 | 0.00 | 87 | 1013.5 |
| 20260505050440 | 58 | 359 | 0.0 | 0.0 | 0.48 | 1.10 | 0.00 | 87 | 1013.3 |
| 20260505041440 | 59 | 359 | 0.0 | 0.0 | 0.40 | 0.70 | 0.00 | 88 | 1013.6 |
| 20260505040943 | 59 | 359 | 0.0 | 0.0 | 0.39 | 0.66 | 0.00 | 88 | 1013.5 |
| 20260505040440 | 59 | 359 | 0.0 | 0.0 | 0.36 | 0.61 | 0.00 | 87 | 1013.3 |
| 20260505035946 | 58 | 359 | 0.0 | 0.0 | 0.25 | 0.50 | 0.00 | 87 | 1013.6 |
| 20260505035440 | 58 | 359 | 0.0 | 0.0 | 0.24 | 0.48 | 0.00 | 87 | 1013.2 |
| 20260505034943 | 59 | 359 | 0.0 | 0.0 | 0.25 | 0.47 | 0.00 | 87 | 1013.0 |
| 20260505034443 | 59 | 359 | 0.0 | 0.0 | 0.22 | 0.44 | 0.00 | 87 | 1013.3 |
| 20260505033940 | 59 | 359 | 0.0 | 0.0 | 0.21 | 0.41 | 0.00 | 87 | 1013.2 |
| 20260505033443 | 59 | 359 | 0.0 | 0.0 | 0.22 | 0.40 | 0.00 | 87 | 1013.5 |
| 20260505032940 | 59 | 359 | 0.0 | 0.0 | 0.21 | 0.38 | 0.00 | 87 | 1013.6 |
| 20260505032446 | 59 | 359 | 0.0 | 0.0 | 0.20 | 0.36 | 0.00 | 88 | 1013.6 |
| 20260505031946 | 59 | 359 | 0.0 | 0.0 | 0.18 | 0.33 | 0.00 | 88 | 1013.8 |
| 20260505031440 | 60 | 359 | 0.0 | 0.0 | 0.16 | 0.30 | 0.00 | 88 | 1013.9 |
| 20260505030940 | 60 | 359 | 0.0 | 0.0 | 0.14 | 0.27 | 0.00 | 88 | 1014.0 |
| 20260505030440 | 60 | 359 | 0.0 | 0.0 | 0.13 | 0.25 | 0.00 | 88 | 1014.2 |
| 20260505025943 | 60 | 359 | 0.0 | 0.0 | 0.13 | 0.24 | 0.00 | 88 | 1014.2 |
| 20260505025440 | 60 | 359 | 0.0 | 0.0 | 0.13 | 0.23 | 0.00 | 87 | 1014.3 |
| 20260505024943 | 60 | 359 | 0.0 | 0.0 | 0.12 | 0.22 | 0.00 | 87 | 1014.4 |
| 20260505024440 | 60 | 359 | 0.0 | 0.0 | 0.13 | 0.21 | 0.00 | 87 | 1014.4 |
| 20260505023943 | 60 | 359 | 0.0 | 0.0 | 0.12 | 0.20 | 0.00 | 86 | 1014.5 |
| 20260505023446 | 60 | 359 | 0.0 | 0.0 | 0.11 | 0.18 | 0.00 | 86 | 1014.6 |
| 20260505022940 | 60 | 359 | 0.0 | 0.0 | 0.11 | 0.17 | 0.00 | 86 | 1014.7 |
| 20260505022440 | 60 | 359 | 0.0 | 0.0 | 0.10 | 0.15 | 0.00 | 87 | 1014.9 |
| 20260505021943 | 60 | 359 | 0.0 | 0.0 | 0.10 | 0.14 | 0.00 | 86 | 1014.8 |
| 20260505021440 | 60 | 359 | 0.0 | 0.0 | 0.09 | 0.14 | 0.00 | 86 | 1014.8 |
| 20260505020946 | 60 | 359 | 0.0 | 0.0 | 0.09 | 0.12 | 0.00 | 86 | 1014.9 |
| 20260505020438 | 60 | 359 | 0.0 | 0.0 | 0.08 | 0.11 | 0.00 | 85 | 1014.8 |
| 20260505015941 | 61 | 359 | 0.0 | 0.0 | 0.09 | 0.11 | 0.00 | 85 | 1014.9 |
| 20260505015438 | 61 | 359 | 0.0 | 0.0 | 0.08 | 0.10 | 0.00 | 84 | 1015.0 |
| 20260505014938 | 61 | 359 | 0.0 | 0.0 | 0.08 | 0.09 | 0.00 | 84 | 1015.1 |
| 20260505014438 | 61 | 359 | 0.0 | 0.0 | 0.07 | 0.07 | 0.00 | 84 | 1015.2 |
| 20260505013941 | 61 | 359 | 0.0 | 0.0 | 0.07 | 0.07 | 0.00 | 83 | 1015.3 |
| 20260505013438 | 61 | 359 | 0.0 | 0.0 | 0.07 | 0.07 | 0.00 | 83 | 1015.3 |
| 20260505012938 | 61 | 359 | 0.0 | 0.0 | 0.06 | 0.06 | 0.00 | 82 | 1015.3 |
| 20260505012441 | 61 | 359 | 0.0 | 0.0 | 0.05 | 0.05 | 0.00 | 82 | 1015.4 |
| 20260505011938 | 61 | 359 | 0.0 | 0.0 | 0.04 | 0.04 | 0.00 | 81 | 1015.3 |
| 20260505011444 | 62 | 359 | 0.0 | 0.0 | 0.04 | 0.04 | 0.00 | 80 | 1015.5 |
| 20260505010941 | 62 | 359 | 0.0 | 0.0 | 0.03 | 0.03 | 0.00 | 78 | 1015.5 |
| 20260505010441 | 63 | 359 | 0.0 | 0.0 | 0.03 | 0.03 | 0.00 | 77 | 1015.7 |
| 20260505005941 | 63 | 359 | 0.0 | 0.0 | 0.01 | 0.01 | 0.00 | 76 | 1015.8 |
| 20260505005441 | 64 | 359 | 0.0 | 0.0 | 0.01 | 0.01 | 0.00 | 74 | 1015.9 |
| 20260505004941 | 64 | 359 | 0.0 | 0.0 | 0.00 | 0.00 | 0.00 | 73 | 1015.9 |
| 20260505004444 | 64 | 359 | 0.0 | 0.0 | 0.00 | 0.00 | 0.00 | 72 | 1015.9 |
| 20260505003944 | 64 | 359 | 0.0 | 0.0 | 0.00 | 0.00 | 0.00 | 71 | 1016.0 |
| 20260505003441 | 65 | 359 | 0.0 | 0.0 | 0.00 | 0.00 | 0.00 | 70 | 1016.1 |
| 20260505002944 | 65 | 359 | 0.0 | 0.0 | 0.00 | 0.00 | 0.00 | 70 | 1016.1 |
| 20260505002438 | 65 | 359 | 0.0 | 0.0 | 0.00 | 0.00 | 0.00 | 70 | 1016.2 |
| 20260505001938 | 64 | 359 | 0.0 | 0.0 | 0.00 | 0.00 | 0.00 | 70 | 1016.2 |
| 20260505001441 | 64 | 359 | 0.0 | 0.0 | 0.00 | 0.00 | 0.00 | 70 | 1016.4 |
| 20260505000944 | 64 | 359 | 0.0 | 0.0 | 0.00 | 0.00 | 0.00 | 70 | 1016.5 |
| 20260505000438 | 64 | 359 | 0.0 | 0.0 | 0.00 | 0.00 | 0.00 | 70 | 1016.5 |
| 20260504235938 | 64 | 359 | 0.0 | 0.0 | 0.00 | 0.00 | 0.00 | 71 | 1016.7 |
| 20260504235438 | 64 | 359 | 0.0 | 0.0 | 0.00 | 0.00 | 0.00 | 71 | 1016.7 |
| 20260504234938 | 64 | 359 | 0.0 | 0.0 | 0.00 | 0.00 | 0.00 | 71 | 1016.7 |
| 20260504234438 | 64 | 359 | 0.0 | 0.0 | 0.00 | 0.00 | 0.00 | 71 | 1016.8 |
| 20260504233938 | 65 | 359 | 0.0 | 0.0 | 0.00 | 0.00 | 0.00 | 72 | 1016.9 |
| 20260504233441 | 65 | 359 | 0.0 | 0.0 | 0.00 | 0.00 | 0.00 | 72 | 1017.1 |
| 20260504232938 | 65 | 359 | 0.0 | 0.0 | 0.00 | 0.00 | 0.00 | 71 | 1017.2 |
| 20260504232438 | 65 | 359 | 0.0 | 0.0 | 0.00 | 0.00 | 0.00 | 71 | 1017.2 |
| 20260504231941 | 65 | 359 | 0.0 | 0.0 | 0.00 | 0.00 | 0.00 | 70 | 1017.3 |
| 20260504231438 | 65 | 359 | 0.0 | 0.0 | 0.00 | 0.00 | 0.00 | 70 | 1017.3 |
| 20260504230938 | 65 | 359 | 0.0 | 0.0 | 0.00 | 0.00 | 0.00 | 70 | 1017.3 |
| 20260504230441 | 64 | 359 | 0.0 | 0.0 | 0.00 | 0.00 | 0.00 | 70 | 1017.5 |
| 20260504225941 | 65 | 359 | 0.0 | 0.0 | 0.00 | 0.00 | 0.00 | 71 | 1017.4 |
| 20260504225441 | 65 | 359 | 0.0 | 0.0 | 0.00 | 0.00 | 0.00 | 71 | 1017.5 |
| 20260504224938 | 65 | 359 | 0.0 | 0.0 | 0.00 | 0.00 | 0.00 | 72 | 1017.6 |
| 20260504224441 | 65 | 359 | 0.0 | 0.0 | 0.00 | 0.00 | 0.00 | 72 | 1017.6 |
| 20260504223938 | 65 | 359 | 0.0 | 0.0 | 0.00 | 0.00 | 0.00 | 73 | 1017.7 |